CZ-3C DEB, 40816

Orbit data source: Space-Track

CZ-3C DEB, 40816 is space debris in HEO originally from a launch on Sun, 31 Oct 2010 UTC launched from the Xichang Space Center, China (XSC). Debris objects in space refer to the collection of defunct objects orbiting the Earth. Examples of debris include non-operational satellites, rocket bodies, and fragments generated from explosions, collisions, or faulty payload assembly.

Loading next visibility...
Identifier
40816, 2010-057AH
Orbit
HEO
Country
Flag of CNCN / PRC
Related business
Manufacturer
CALT
Mission
Spacecraft
Bus & Motor
Unknown
Mass
Unknown
Launch date (UTC)
2010-10-31 (15 years ago)
Launch vehicle
Unknown
Launch site
Xichang Space Center, China (XSC)
Object type
Payload
Rocket body
Debris
Shape & HBR
Unknown
Radar Cross Section
Small (<0.1 m²)

Expand to show TLE details & history
Last TLE update: 11 months ago

TLE from 11 months ago
0 CZ-3C DEB
1 40816U 10057AH  24298.43136527 -.00000069  00000-0 -64025-4 0  9996
2 40816  19.7804 245.1152 7117488 261.2264  19.5039  2.29515110 85915
Epoch: 2024-10-24T10:21Z
TLE epoch observation values (Epoch: 2024-10-24T10:21:09.959Z)
Latitude
-0.00014°
Longitude
56.42022°
Altitude
7,053.72 km
Speed
6.552 km/s
True Right ascension
16h 20m 06s
True Declination
0° 00' 00"
Sunlit
Object was in daylight at epoch
Visualization orbit readout
Latitude
Unknown
Longitude
Unknown
Altitude
Unknown
Speed
Unknown
Apparent Right ascension
Unknown
Apparent Declination
Unknown
Sunlit
N/A
Visualization observer readout
Local Sidereal Time
10:32:14
Azimuth
Unknown
Elevation
Unknown
Doppler factor
Unknown
Orbital elements
Apogee altitude
35,185.369 km
Perigee altitude
620.98 km
Semi-major axis
24,281.311 km
Eccentricity
0.71175
Inclination
19.7804°
RAAN
245.1152°
Arg. of periapsis
261.2264°
True anomaly
99.03571°
Mean anomaly
19.5039°
Eccentric anomaly
51.35405°
Mean motion
0.57363 °/min
Orbital period
627.58 mins
BSTAR
-0.000064025
Loading maneuver chart data...
Computing Atmospheric mass density...
Loading historical data...
Loading historical data...
Loading historical data...
Loading historical data...
Loading historical data...
Loading historical data...
Loading historical data...

Documentation

Showing up to 5 results
|